FENGYUN 1C DEB, 30413

Orbit data source: Space-Track

FENGYUN 1C DEB, 30413 is space debris in SSO originally from a launch on Mon, 10 May 1999 UTC launched from the Taiyaun Space Center, China (TSC). Fengyun 1C debris stems from the Chinese weather satellite Fengyun-1C, which was intentionally destroyed by a Chinese anti-satellite missile in 2007. This event dramatically increased the amount of space debris, with thousands of trackable fragments posing hazards to satellites and human spaceflight. The Fengyun 1C debris cloud has become a focal point in discussions about space sustainability and the need for international regulations to prevent the creation of new debris.

Loading next visibility...
Identifier
30413, 1999-025AEC
Orbit
SSO
Country
Flag of CNCN / PRC
Related business
Manufacturer
Unknown
Mission
Spacecraft
Bus & Motor
Unknown
Mass
Unknown
Launch date (UTC)
1999-05-10 (27 years ago)
Launch vehicle
Unknown
Launch site
Taiyaun Space Center, China (TSC)
Object type
Payload
Rocket body
Debris
Shape & HBR
Unknown shape, 0.1 m
Radar Cross Section
Medium (>0.1 m² and <1 m²)

Expand to show TLE details & history
Last TLE update: 1 week ago

TLE from 1 week ago
0 FENGYUN 1C DEB
1 30413U 99025AEC 26154.66588141  .00005346  00000-0  18951-2 0  9997
2 30413 102.0609  99.8719 0045916 120.9593   3.3208 14.34568357996172
Epoch: 2026-06-03T15:58Z
TLE epoch observation values (Epoch: 2026-06-03T15:58:52.153Z)
Latitude
53.98244°
Longitude
165.0307°
Altitude
752.419 km
Speed
7.501 km/s
True Right ascension
19h 47m 28s
True Declination
53° 49' 07"
Sunlit
Object was in daylight at epoch
Visualization orbit readout
Latitude
Unknown
Longitude
Unknown
Altitude
Unknown
Speed
Unknown
Apparent Right ascension
Unknown
Apparent Declination
Unknown
Sunlit
N/A
Visualization observer readout
Local Sidereal Time
02:42:11
Azimuth
Unknown
Elevation
Unknown
Doppler factor
Unknown
Orbital elements
Apogee altitude
806.671 km
Perigee altitude
740.993 km
Semi-major axis
7,151.969 km
Eccentricity
0.00459
Inclination
102.0609°
RAAN
99.8719°
Arg. of periapsis
120.9593°
True anomaly
3.35145°
Mean anomaly
3.3208°
Eccentric anomaly
3.33611°
Mean motion
3.58843 °/min
Orbital period
100.32 mins
BSTAR
0.0018951
Loading maneuver chart data...
Computing Atmospheric mass density...

Documentation

Showing up to 5 results
|